085  
ASUS43 KIWX 232310  
RWRIWX  
 
KIWX WEATHER ROUNDUP  
NATIONAL WEATHER SERVICE NORTHERN INDIANA  
700 PM EDT SAT SEP 23 2017  
 
NOTE: "FAIR" INDICATES FEW OR NO CLOUDS BELOW 12,000 FEET WITH NO  
SIGNIFICANT WEATHER AND/OR S TO VISIBILITY
.  
 
* THESE STATIONS ARE NOT UNDER NWS QUALITY CONTROL. THEY ALSO MAY NOT  
REPORT WEATHER SUCH AS PRECIPITATION OR FOG.
 
 
INZ001>027-240000-  
NORTHERN INDIANA  
 
CITY SKY/WX TMP DP RH WIND PRES REMARKS
 
GARY* CLEAR 84 66 54 E7 30.05S  
VALPARAISO CLEAR 88 66 48 E8 30.06R  
MICHIGAN CITY* CLEAR 82 68 61 N3 30.06S  
LAPORTE* CLEAR 89 65 45 SE3 30.07S  
KNOX* CLEAR 88 64 45 SE3 30.05S  
SOUTH BEND CLEAR 88 62 41 SE10 30.07S  
GOSHEN CLEAR 87 62 43 SE7 30.08S  
MONTICELLO* CLEAR 87 61 41 E6 30.05S  
LOGANSPORT* CLEAR 86 64 48 NE3 30.07S  
WARSAW* CLEAR 82 64 54 E7 30.08F  
AUBURN* CLEAR 82 63 51 CALM 30.10S  
FORT WAYNE CLEAR 84 65 52 E8 30.09R  
HUNTINGTON* CLEAR 86 63 45 CALM 30.07F  
PERU/GRISSOM CLEAR 87 65 48 E5 30.06S  
 

 
INZ028>050-240000-  
CENTRAL INDIANA  
 
CITY SKY/WX TMP DP RH WIND PRES REMARKS
 
LAFAYETTE CLEAR 85 67 54 E8 30.03S  
KOKOMO* CLEAR 85 67 54 E5 30.08S  
MUNCIE* CLEAR 87 60 40 E7 30.07S  
INDIANAPOLIS PTCLDY 87 63 44 E8 30.05S  
 

 
MIZ043>046-050>051-056>058-064>065-071>073-077>080-240000-  
SOUTHWEST LOWER MICHIGAN  
 
CITY SKY/WX TMP DP RH WIND PRES REMARKS
 
BATTLE CREEK CLEAR 89 59 36 S7 30.09F  
BENTON HARBOR CLEAR 85 67 54 CALM 30.06S  
COLDWATER* CLEAR 85 58 38 SE3 30.10S  
HILLSDALE* CLEAR 82 61 47 SE3 30.12S  
HOLLAND CLEAR 87 65 47 NW5 30.07S  
GRAND RAPIDS PTCLDY 91 58 32 S6 30.07S  
KALAMAZOO CLEAR 89 57 33 S5 30.08S  
STURGIS* CLEAR 87 63 45 SE6 30.09S  
THREE RIVERS* FAIR 89 58 35 SE5 30.09R  
 

 
OHZ001>008-015>018-024>025-240000-  
NORTHWEST OHIO  
 
CITY SKY/WX TMP DP RH WIND PRES REMARKS
 
WAUSEON* FAIR 84 63 48 E5 30.10S  
DEFIANCE CLEAR 85 63 47 E5 30.09S  
FINDLAY CLEAR 85 60 42 E8 30.09S  
TOLEDO EXPRESS CLEAR 83 61 47 E6 30.09S  
TOLEDO METCALF CLEAR 82 62 50 E5 30.11S  
LIMA CLEAR 84 62 47 NE5 30.09S  
 

 
AND FOR LAKE MICHIGAN COASTAL AND OPEN LAKE BUOY OBSERVATIONS  
 
STATION/POSITION TEMP WIND PRES VSBY WAVE
 
AIR SEA DIR/SP/G HT/PER  
(F) (DEG/KT/KT) (MB) (MI) (FT/S)  
CALUMET HARBOR 81 70/ 8/ 10 1016.7S  
MICHIGAN CITY 77 50/ 13/ 14 N/A  
BURNS HARBOR 76 60/ 9/ 11 1017.9  
SAINT JOSEPH 82 20/ 3/ 5 1018.6  
SOUTH LAKE BUOY 76 73 140/ 4/ 4 1017.5F 0  
4 MI NW BRIDGMAN 76 73 50/ 6/ 8 1017.5 0  
MICHIGAN CITY 75 74 80/ 8/ 8 N/A 1  
 

 

 
 
 
CLICK HERE TO GO TO PREVIOUS BULLETINS.

The Nexlab IN Page
The Nexlab OH Page
The Nexlab MI Page Main Text Page